GAOFEN 13 (46610 NORAD) Tracking and Keplerian Element Data

This shows tracking and keplerian element data for the satellite.

Feedback or suggestion? Click here.




ElementValue
Catalog46610
NameGAOFEN 13
Epoch Orbit28
Epoch Day303.04910351
Epoch Year2020
RAAN282.2031
Inclination1.9683
Eccentricity0.0003265
Argument of Perigee289.1543
Mean Anonmoly321.9567
Mean Motion1.00266283
Decay Rate-3.66E-06
L11 46610U 20071A 20303.04910351 -.00000366 00000-0 00000+0 0 9993
L22 46610 1.9683 282.2031 0003265 289.1543 321.9567 1.00266283 283

Live tracking and technical data element details for GAOFEN 13 (NORAD 46610). GAOFEN 13 can be tracked NOW for your location showing map with azimuth and elevation plus other details from your city location.

Track the satellite on the map from your city or location and see movement details for azimuth, elevation, latitude, longitude, range, height, and movement on the map or in text.







IsCatalogInMostPopularTable: catalog: 46610, numindb: 2
Update: records affected: 1



GetName: 46610 GAOFEN 13

Hit Count: updated at: Fri, 30 Oct 2020 01:50:05 GMT